EPKKEPWR

Guest
Details From EPKK - BALICE
To EPWR - STRACHOWICE
Flight Number -
Tags generated
Created
Modified
Stats Distance 127 nm / 235 km
Max Altitude 9,300 ft / 2,835 m
Waypoints 3
Social Downloads 22
Likes 0
Share

Download

Looking for another format? Having issues loading an existing format? Contact us
Advertisement - Login to hide

Notes

Basic altitude profile: - Ascent Rate: 2500ft/min - Ascent Speed: 250kts - Cruise Altitude: 18000ft - Cruise Speed: 420kts - Descent Rate: 1500ft/min - Descent Speed: 250kts Options: - Use NATs: yes - Use PACOTS: yes - Use low airways: yes - Use high airways: no

Route

EPKK SABAB EPWR

ID Type Via Altitude (ft/m) Position (lat/lon) Dist (leg/tot) Name
O EPKK APT - 0 / 0 50.07782 / 19.78550 - / 0 nm BALICE
SABAB FIX - 9,300 / 2,835 50.77028 / 17.89917 83 / 83 nm
O EPWR APT - 0 / 0 51.10388 / 16.88189 43 / 126 nm STRACHOWICE

Altitude Profile

Advertisement - Login to hide

EPKK

Details ICAO EPKK (KRK)
Name Krakow-John Paul II
Region Poland
Timezone Europe/Warsaw (UTC+2.0)
Stats Elevation 791 ft / 241 m (AMSL)
Location 50.077800° 19.785500°
Runways 1
Magnetic Variation 5.746° E

METAR

EPKK 242130Z VRB02KT 9999 FEW033 BKN050 16/15 Q1012

Decode

TAF

TAF EPKK 242030Z 2421/2521 VRB02KT 9999 BKN050 TEMPO 2421/2424 -SHRA BKN035CB PROB30 TEMPO 2500/2504 4000 BR BKN010 TEMPO 2504/2515 4000 SHRA BKN030CB BECMG 2509/2512 27010KT PROB40 TEMPO 2510/2515 VRB15G30KT TSRA

Decode

Departure Runways

ID Width Length Bearing (true/mag) Surface Threshold Overrun Markings Lighting
07 197 ft / 60 m 8,352 ft / 2,546 m 77.76° / 72.01° CONCRETE 0 ft / 0 m 0 ft / 0 m PREC-APP CENTERLINE EDGE THRESHOLD ALSF-I REIL-OMNI
25 197 ft / 60 m 8,352 ft / 2,546 m 257.78° / 252.04° CONCRETE 778 ft / 237 m 0 ft / 0 m PREC-APP CENTERLINE EDGE THRESHOLD ALSF-II TDZ REIL-OMNI

EPWR

Details ICAO EPWR (WRO)
Name Wroclaw-Copernicus Int'l
Region Poland
Timezone Europe/Warsaw (UTC+2.0)
Stats Elevation 403 ft / 123 m (AMSL)
Location 51.103900° 16.881900°
Runways 1
Magnetic Variation 5.177° E

METAR

EPWR 242130Z 20005KT 160V220 CAVOK 17/14 Q1011

Decode

TAF

TAF EPWR 242030Z 2421/2521 VRB02KT CAVOK TEMPO 2501/2507 4000 -RA BR BKN013 TEMPO 2509/2511 BKN040TCU TEMPO 2511/2518 SHRA BKN040CB

Decode

Destination Runways

ID Width Length Bearing (true/mag) Surface Threshold Overrun Markings Lighting
12 148 ft / 45 m 8,220 ft / 2,506 m 115.99° / 110.81° CONCRETE 0 ft / 0 m 108 ft / 33 m PREC-APP EDGE THRESHOLD SALS
30 148 ft / 45 m 8,220 ft / 2,506 m 296.02° / 290.84° CONCRETE 0 ft / 0 m 92 ft / 28 m PREC-APP EDGE THRESHOLD CALVERT

Approach Navaids

Runway Type Ident Frequency Range Bearing (true/mag) Slope Elevation
30 GS WRO 110.30 MHz 10 nm / 19 km 296.01° / 290.83 ° 3.00° 403 ft / 123 m (AMSL)
30 DME WRO 110.30 MHz 18 nm / 33 km - - 394 ft / 120 m (AMSL)
30 OM OM - - 296.00° / 290.82 ° - 404 ft / 123 m (AMSL)
30 LOC-ILS WRO 110.30 MHz 18 nm / 33 km 296.01° / 290.83 ° - 403 ft / 123 m (AMSL)

Popular Alternatives